Weather Roundup
Issued by NWS

Home | Current Version | Previous Version | Text Only | Print | Product List | Glossary On
Versions: 1 2 3 4 5 6 7 8 9 10 11 12 13 14 15 16 17 18 19 20 21 22 23 24 25 26 27 28 29 30 31 32 33 34 35 36 37 38 39 40 41 42 43 44 45 46 47 48 49 50
000
NZUS93 KARX 282110
HRRWXR

CURRENT HOURLY OBSERVATIONS ACROSS
MUCH OF THE UPPER MISSISSIPPI VALLEY
NATIONAL WEATHER SERVICE LA CROSSE WI
400 PM CDT MON JUL 28 2014


...SOUTHEAST MINNESOTA...


CITY           SKY/WX    TMP DP  RH WIND       PRES   REMARKS
ROCHESTER      PTSUNNY   70  51  51 N12G18    30.19S
ROCHESTER/MAYO MOCLDY    72  46  39 NW6       30.18S
WINONA         CLOUDY    73  50  43 N7        30.16S
AUSTIN         PTSUNNY   70  54  56 N5        30.18S
ALBERT LEA     PTSUNNY   73  54  49 NW7       30.19F
DODGE CENTER   MOSUNNY   72  55  56 N9        30.19S
PRESTON        MOSUNNY   70  58  65 N9        30.18F
OWATONNA       PTSUNNY   73  48  40 NW12      30.18F
FARIBAULT      CLOUDY    73  48  40 NW7       30.19S
$$

...ELSEWHERE IN MINNESOTA...


CITY           SKY/WX    TMP DP  RH WIND       PRES   REMARKS
MINNEAPOLIS    MOSUNNY   77  50  38 NW13      30.16F
INTNL FALLS    PTSUNNY   73  54  51 NW8       30.15F
DULUTH         MOSUNNY   74  52  46 NW12      30.13F
RED WING       PTSUNNY   75  48  38 N5        30.15S
REDWOOD FALLS  SUNNY     75  50  41 NW13      30.21F
MANKATO        CLOUDY    73  50  43 NW7       30.19S
WORTHINGTON    PTSUNNY   70  52  52 N12       30.25S
FAIRMONT       CLOUDY    73  52  46 N9        30.21S
$$

...SOUTHWEST WISCONSIN...


CITY           SKY/WX    TMP DP  RH WIND       PRES   REMARKS
LA CROSSE      PTSUNNY   75  49  39 N12       30.13F
PRAIRIE DU CHI PTSUNNY   73  44  35 N7        30.14S
BOSCOBEL       PTSUNNY   75  49  39 N6        30.14S
LONE ROCK      PTSUNNY   77  52  41 NW10      30.12F
PLATTEVILLE    PTSUNNY   71  50  47 NW6       30.15S
FORT MC COY    CLOUDY    72  47  40 NW8       30.14S
CAMP DOUGLAS   PTSUNNY   73  54  49 NW10      30.12S
VIROQUA        MOCLDY    72  51  47 NW10      30.15S
WIS DELLS      CLOUDY    72  46  39 NW6       30.11S
$$

...ELSEWHERE IN WISCONSIN...


CITY           SKY/WX    TMP DP  RH WIND       PRES   REMARKS
MILWAUKEE      PTSUNNY   65  51  60 E10       30.09F
MADISON        PTSUNNY   74  50  42 NW13G18   30.10F
GREEN BAY      CLOUDY    72  54  53 VRB3      30.05F
EAU CLAIRE     MOSUNNY   75  49  39 NW12      30.13F
BLACK RVR FLS  FAIR      76  44  31 NW9G16    30.13S
MEDFORD        PTSUNNY   70  53  53 NW10      30.12F
WAUSAU         CLOUDY    73  50  44 NW10      30.08S
WIS RAPIDS     MOSUNNY   74  50  42 NW14      30.11F
MARSHFIELD     PTSUNNY   73  52  47 NW15      30.11F
RICE LAKE      MOSUNNY   72  51  46 NW7       30.16F
$$

...NORTHEAST IOWA...


CITY           SKY/WX    TMP DP  RH WIND       PRES   REMARKS
WATERLOO       PTSUNNY   74  54  49 N6        30.16S
DUBUQUE        CLOUDY    69  53  56 NW7       30.16S
DECORAH        CLOUDY    72  52  49 N9G15     30.16S
MASON CITY     MOSUNNY   76  54  46 NW12      30.20S
CHARLES CITY   PTSUNNY   73  54  49 N12       30.18F
OELWEIN        PTSUNNY   73  52  46 NW10      30.17S
$$

...ELSEWHERE IN IOWA...


CITY           SKY/WX    TMP DP  RH WIND       PRES   REMARKS
DES MOINES     CLOUDY    73  57  57 W8        30.18F
IOWA CITY      PTSUNNY   73  52  47 NW10      30.16F
FORT DODGE     CLOUDY    73  59  60 N5        30.21S
MARSHALLTOWN   CLOUDY    72  57  59 NW7       30.18S
CEDAR RAPIDS   CLOUDY    72  50  45 N7        30.15S
$$

...NORTHERN ILLINOIS...


CITY           SKY/WX    TMP DP  RH WIND       PRES   REMARKS
CHICAGO-OHARE  PTSUNNY   72  46  39 N13       30.08S
DUPAGE         CLOUDY    70  48  45 N10       30.09S
CHICAGO-MIDWAY MOSUNNY   73  47  39 N15       30.08S
MOLINE         PTSUNNY   73  50  44 N9        30.14S
ROCKFORD       PTSUNNY   72  48  42 N12       30.12F
STERLING       CLOUDY    72  50  46 NE9       30.14R
PEORIA         MOSUNNY   73  50  44 VRB3G17   30.12S
$$

NOTE: "FAIR" INDICATES FEW OR NO CLOUDS BELOW 12,000 FEET WITH NO
SIGNIFICANT WEATHER AND/OR OBSTRUCTIONS TO VISIBILITY. WIND
SPEEDS ARE IN MILES-PER-HOUR.



USA.gov is the U.S. government's official web portal to all federal, state and local government web resources and services.